TimeCDT,TemperatureF,Dew PointF,Humidity,Sea Level PressureIn,VisibilityMPH,Wind Direction,Wind SpeedMPH,Gust SpeedMPH,PrecipitationIn,Events,Conditions,WindDirDegrees,DateUTC
12:14 AM,52.7,47.5,82,30.02,7.0,Calm,Calm,-,N/A,,Overcast,0,2014-04-20 05:14:00
12:34 AM,52.9,47.3,81,30.01,5.0,SSE,3.5,-,0.03,Rain,Heavy Rain,160,2014-04-20 05:34:00
12:54 AM,52.2,47.5,84,30.01,7.0,Calm,Calm,-,0.03,Rain,Light Rain,0,2014-04-20 05:54:00
1:14 AM,52.0,47.5,85,30.02,5.0,Calm,Calm,-,0.01,Rain,Light Rain,0,2014-04-20 06:14:00
1:33 AM,51.6,47.7,86,30.02,4.0,Calm,Calm,-,0.01,,Overcast,0,2014-04-20 06:33:00
1:53 AM,51.8,46.9,83,30.01,7.0,Calm,Calm,-,0.01,Rain,Light Rain,0,2014-04-20 06:53:00
2:14 AM,51.1,47.3,87,30.01,5.0,Calm,Calm,-,N/A,,Overcast,0,2014-04-20 07:14:00
2:33 AM,51.1,47.3,87,30.01,7.0,Calm,Calm,-,N/A,,Overcast,0,2014-04-20 07:33:00
2:54 AM,50.0,46.4,87,30.00,5.0,Calm,Calm,-,N/A,,Overcast,0,2014-04-20 07:54:00
3:13 AM,50.2,46.8,88,30.00,2.5,Calm,Calm,-,N/A,,Mostly Cloudy,0,2014-04-20 08:13:00
3:34 AM,49.5,46.4,89,30.00,1.8,Calm,Calm,-,N/A,,Overcast,0,2014-04-20 08:34:00
3:54 AM,48.4,45.5,90,30.00,1.8,Calm,Calm,-,N/A,,Mostly Cloudy,0,2014-04-20 08:54:00
4:13 AM,48.0,45.1,90,30.01,2.5,Calm,Calm,-,N/A,,Overcast,0,2014-04-20 09:13:00
4:33 AM,48.0,45.0,89,30.01,3.0,Calm,Calm,-,N/A,,Overcast,0,2014-04-20 09:33:00
4:54 AM,47.5,44.6,90,30.01,3.0,Calm,Calm,-,N/A,,Mostly Cloudy,0,2014-04-20 09:54:00
5:14 AM,47.3,44.4,90,30.01,2.5,NNW,3.5,-,N/A,,Mostly Cloudy,330,2014-04-20 10:14:00
5:34 AM,47.3,44.4,90,30.02,3.0,Calm,Calm,-,N/A,,Overcast,0,2014-04-20 10:34:00
5:54 AM,46.6,43.5,89,30.02,2.5,NNW,3.5,-,N/A,,Mostly Cloudy,340,2014-04-20 10:54:00
6:14 AM,46.2,43.3,90,30.02,1.8,Calm,Calm,-,N/A,,Scattered Clouds,0,2014-04-20 11:14:00
6:34 AM,45.9,43.2,90,30.02,1.0,Calm,Calm,-,N/A,,Overcast,0,2014-04-20 11:34:00
7:14 AM,45.0,42.4,91,30.04,4.0,North,5.8,-,N/A,,Clear,360,2014-04-20 12:14:00
7:34 AM,46.2,43.5,90,30.03,5.0,North,3.5,-,N/A,,Clear,10,2014-04-20 12:34:00
7:54 AM,48.7,42.8,80,30.03,7.0,NNE,3.5,-,N/A,Thunderstorm,Clear,30,2014-04-20 12:54:00
8:14 AM,50.4,43.0,76,30.04,7.0,Calm,Calm,-,N/A,,Clear,0,2014-04-20 13:14:00
8:34 AM,52.5,42.6,69,30.04,10.0,Calm,Calm,-,N/A,,Clear,0,2014-04-20 13:34:00
8:54 AM,54.1,43.5,67,30.03,10.0,NE,3.5,-,N/A,,Clear,40,2014-04-20 13:54:00
9:14 AM,55.9,42.6,61,30.04,10.0,East,6.9,-,N/A,,Clear,90,2014-04-20 14:14:00
9:34 AM,57.9,44.1,60,30.04,10.0,ENE,5.8,-,N/A,,Clear,70,2014-04-20 14:34:00
9:54 AM,59.2,44.2,58,30.03,10.0,East,8.1,-,N/A,,Clear,80,2014-04-20 14:54:00
10:14 AM,60.8,44.1,54,30.03,10.0,East,8.1,-,N/A,,Clear,90,2014-04-20 15:14:00
10:34 AM,63.0,43.5,49,30.03,10.0,East,6.9,-,N/A,,Clear,90,2014-04-20 15:34:00
10:54 AM,64.6,42.1,44,30.03,10.0,East,4.6,-,N/A,,Clear,80,2014-04-20 15:54:00
11:14 AM,66.4,40.3,38,30.03,10.0,East,8.1,-,N/A,,Clear,90,2014-04-20 16:14:00
11:33 AM,67.8,40.8,37,30.02,10.0,ESE,8.1,-,N/A,,Clear,120,2014-04-20 16:33:00
11:54 AM,68.9,39.0,34,30.02,10.0,East,5.8,-,N/A,,Clear,100,2014-04-20 16:54:00
12:13 PM,69.4,38.1,32,30.01,10.0,East,8.1,-,N/A,,Clear,100,2014-04-20 17:13:00
12:34 PM,69.8,37.8,31,30.01,10.0,ENE,5.8,-,N/A,,Clear,70,2014-04-20 17:34:00
12:54 PM,70.3,36.1,29,30.00,10.0,East,9.2,-,N/A,,Clear,80,2014-04-20 17:54:00
1:14 PM,71.1,33.6,25,30.00,10.0,East,3.5,-,N/A,,Clear,80,2014-04-20 18:14:00
1:34 PM,71.8,29.7,21,29.99,10.0,East,4.6,-,N/A,,Clear,80,2014-04-20 18:34:00
1:54 PM,72.3,29.5,20,29.99,10.0,NNE,4.6,-,N/A,,Clear,20,2014-04-20 18:54:00
2:14 PM,72.7,28.6,20,29.99,10.0,NNE,4.6,-,N/A,,Clear,30,2014-04-20 19:14:00
2:34 PM,73.8,31.5,21,29.98,10.0,NE,4.6,-,N/A,,Clear,50,2014-04-20 19:34:00
2:54 PM,74.5,27.1,17,29.97,10.0,ESE,6.9,-,N/A,,Clear,120,2014-04-20 19:54:00
3:14 PM,74.7,29.5,19,29.96,10.0,East,9.2,-,N/A,,Clear,90,2014-04-20 20:14:00
3:34 PM,74.7,30.6,20,29.96,10.0,East,3.5,-,N/A,,Clear,100,2014-04-20 20:34:00
3:54 PM,75.0,30.9,20,29.96,10.0,East,3.5,-,N/A,,Clear,80,2014-04-20 20:54:00
4:14 PM,75.2,31.3,20,29.95,10.0,ESE,9.2,-,N/A,,Clear,110,2014-04-20 21:14:00
4:34 PM,75.2,31.5,20,29.95,10.0,NNE,3.5,-,N/A,,Clear,30,2014-04-20 21:34:00
4:54 PM,75.7,30.7,19,29.95,10.0,East,5.8,-,N/A,,Clear,100,2014-04-20 21:54:00
5:14 PM,75.4,31.1,20,29.94,10.0,ENE,5.8,-,N/A,,Clear,70,2014-04-20 22:14:00
5:34 PM,75.4,29.7,19,29.94,10.0,ENE,6.9,-,N/A,,Clear,70,2014-04-20 22:34:00
5:53 PM,75.2,36.0,24,29.94,10.0,ESE,8.1,-,N/A,,Clear,120,2014-04-20 22:53:00
6:14 PM,73.6,37.9,27,29.93,10.0,East,6.9,-,N/A,,Clear,80,2014-04-20 23:14:00
6:33 PM,72.7,41.2,32,29.93,10.0,ESE,6.9,-,N/A,,Clear,120,2014-04-20 23:33:00
6:54 PM,71.6,43.7,37,29.93,10.0,ESE,6.9,-,N/A,,Clear,110,2014-04-20 23:54:00
7:14 PM,70.7,45.7,41,29.93,10.0,East,5.8,-,N/A,,Clear,100,2014-04-21 00:14:00
7:34 PM,69.8,46.9,44,29.92,10.0,East,3.5,-,N/A,,Clear,100,2014-04-21 00:34:00
7:54 PM,67.5,47.5,49,29.92,10.0,East,4.6,-,N/A,,Clear,100,2014-04-21 00:54:00
8:14 PM,66.0,47.7,52,29.92,10.0,East,4.6,-,N/A,,Scattered Clouds,90,2014-04-21 01:14:00
8:34 PM,64.9,47.5,53,29.93,10.0,East,3.5,-,N/A,,Overcast,100,2014-04-21 01:34:00
8:53 PM,63.7,48.4,57,29.94,10.0,ENE,3.5,-,N/A,,Scattered Clouds,70,2014-04-21 01:53:00
9:14 PM,60.3,47.3,62,29.94,10.0,ENE,3.5,-,N/A,,Clear,60,2014-04-21 02:14:00
9:34 PM,61.0,47.8,62,29.93,10.0,ENE,4.6,-,N/A,,Clear,70,2014-04-21 02:34:00
9:53 PM,61.9,48.9,62,29.93,10.0,ENE,3.5,-,N/A,,Clear,70,2014-04-21 02:53:00
10:14 PM,60.4,49.1,66,29.93,10.0,ENE,4.6,-,N/A,,Scattered Clouds,70,2014-04-21 03:14:00
10:33 PM,60.6,49.3,66,29.93,10.0,ESE,5.8,-,N/A,,Mostly Cloudy,110,2014-04-21 03:33:00
10:54 PM,58.3,48.9,71,29.93,10.0,ENE,4.6,-,N/A,,Mostly Cloudy,70,2014-04-21 03:54:00
11:13 PM,59.0,49.1,70,29.92,10.0,East,4.6,-,N/A,,Scattered Clouds,80,2014-04-21 04:13:00
11:34 PM,58.6,49.1,71,29.92,10.0,Calm,Calm,-,N/A,,Clear,0,2014-04-21 04:34:00
11:54 PM,57.9,48.9,72,29.92,10.0,ENE,3.5,-,N/A,,Scattered Clouds,70,2014-04-21 04:54:00